Погода в Серебряных Прудах

Россия / Московская область     54°28′26″N   38°43′29″E
темп.,
°C
ветер,
м/с
пор.,
м/с
влажн.,
%
обл.,
%
осадки,
мм/ч
давл.,
гПа
погр.,
м
1 июля, пт
пт100:00+14ссз4772100 0.0 101698
03:00+12ссз410790 0.0 1016163
06:00+13ссз511820 0.0 1015299
09:00+15св79610 0.0 1017932
12:00+17ссв68450 0.0 10181600
15:00+18ссв710415 0.0 10182121
18:00+17всв486177 0.0 10191171
21:00+11св22752 0.0 102111
2 июля, сб
сб200:00+9с22760 0.0 102211
03:00+9с47765 0.0 1022113
06:00+11ссз49785 0.0 1022207
09:00+17с69600 0.0 1022591
12:00+20с68474 0.0 10211635
15:00+22с574415 0.0 10201987
18:00+22сз58591 0.0 1018443
21:00+17сз49713 0.0 1018134
3 июля, вс
вс300:00+16сз346851 0.0 101868
03:00+17зсз3863100 0.0 1016161
06:00+16сз51075100 0.0 1016230
09:00+21ссз576922 0.0 1016451
12:00+25с575862 0.0 10151372
15:00+27ссз574947 0.0 10142192
18:00+25ссз5961100 0.0 1014366
21:00+20ссв337351 0.0 101632
4 июля, пн
пн400:00+16вюв22820 0.0 101715
03:00+15юв11785 0.0 101711
06:00+17св11750 0.0 101841
09:00+21всв22611 0.0 1018418
12:00+24всв22510 0.0 10181441
15:00+26всв12471 0.0 10171846
18:00+25ююз11520 0.0 10171206
21:00+20юз3367100 0.0 101725
5 июля, вт
вт500:00+18юз3371100 0.0 101836
03:00+16зюз337872 0.0 101830
06:00+18юз248345 0.0 1018113
09:00+23юз346875 0.0 1018434
12:00+26юз445666 0.0 10171248
15:00+27юз445172 0.0 10161724
18:00+26юз466861 0.5 1016622
21:00+20ююз35862 1.3 101569